Location: Krasnoyarskiy
(51.1133°N, 71.6497°E)
Time: 22:09:43
(UTC+00:00)

BREEZE M DEB (TANK) - Pass Details

Date: 27 September 2022
Orbit: 299 x 14318 km, 49.6° (Epoch: 03 December)

Event Time Altitude Azimuth Distance (km) Brightness Sun altitude
Exits shadow 00:07:38 - 235° (SW) 7,846 7.6 -10.1°
Reaches altitude 10° 00:13:08 10° 233° (SW) 5,762 6.9 -9.2°
Maximum altitude 00:24:45 49° 164° (SSE) 1,230 4.2 -7.4°
Drops below altitude 10° 00:28:23 10° 88° (E) 1,854 6.8 -6.9°
Sets 00:29:47 0° 81° (E) 2,460 8.3 -6.7°
